Location: Newark
(31.5350°N, 35.0986°E)
Time: 15:54:49
(UTC+00:00)

Vanguard 1 - Pass Details

Date: 22 September 2019
Orbit: 653 x 3830 km, 34.2° (Epoch: 22 October)

Event Time Altitude Azimuth Distance (km) Brightness Sun altitude
Rises 05:43:28 0° 290° (WNW) 7,113 13.9 27.7°
Reaches altitude 10° 05:49:04 10° 286° (WNW) 5,630 13.5 28.8°
Maximum altitude 06:03:10 47° 219° (SW) 2,256 12.1 31.6°
Drops below altitude 10° 06:10:59 10° 147° (SSE) 3,192 13.6 33.2°
Sets 06:13:18 0° 140° (SE) 3,884 14.0 33.6°
